Regional Weather Roundup
Issued by NWS

Home | Current Version | Previous Version | Graphics & Text | Print | Product List | Glossary Off
Versions: 1 2 3 4 5 6 7 8 9 10 11 12 13 14 15 16 17 18 19 20 21 22 23 24 25 26 27 28 29 30 31 32 33 34 35 36 37 38 39 40 41 42 43 44 45 46 47 48 49 50

000
ASUS43 KTOP 231608
RWRKS

WEATHER ROUNDUP FOR KANSAS
NATIONAL WEATHER SERVICE GOODLAND KS
1100 AM CDT SUN JUL 23 2017

NOTE:  "FAIR" INDICATES FEW OR NO CLOUDS BELOW 12,000 FEET WITH NO
SIGNIFICANT WEATHER AND/OR OBSTRUCTIONS TO VISIBILITY.

KSZ001>006-013>018-027>032-041>047-231700-
NORTHWEST KANSAS

CITY           SKY/WX    TMP DP  RH WIND       PRES   REMARKS
GOODLAND       SUNNY     82  59  45 VRB3      30.12F
HAYS           SUNNY     85  64  49 CALM      30.03R
HILL CITY      PTSUNNY   78  74  87 N8        30.06S FOG
RUSSELL        SUNNY     84  65  52 CALM      30.00F
$$

KSZ061>065-074>080-084>089-231700-
SOUTHWEST KANSAS

CITY           SKY/WX    TMP DP  RH WIND       PRES   REMARKS
DODGE CITY     MOSUNNY   80  65  59 S3        30.07R
ELKHART          N/A     75  56  51 N8          N/A
GARDEN CITY    MOSUNNY   78  65  63 E10       30.09R
LIBERAL        CLOUDY    79  68  69 NE8       30.08S
PRATT          MOSUNNY   77  66  67 CALM      30.03R
$$

KSZ066>073-081>083-090>101-231700-
SOUTHEAST KANSAS

CITY           SKY/WX    TMP DP  RH WIND       PRES   REMARKS
CHANUTE        CLOUDY    78  70  76 SE3       29.98R
COFFEYVILLE    CLOUDY    80  69  69 NE9       29.97R
HUTCHINSON     SUNNY     84  69  60 VRB5      29.98S
MEDICINE LODGE   N/A     77  70  79 N3        30.00R
NEWTON           N/A     82  71  69 NW8       30.00R
PARSONS        CLOUDY    76  70  82 MISG      29.98R
WICHITA INTL   MOSUNNY   84  71  65 NE6       29.97S
WICHITA JABRA  SUNNY     84  71  65 VRB5      29.98R
WICHITA MCCONL SUNNY     82  69  64 NW5       29.98S
WINFIELD       CLOUDY    85  68  56 CALM      29.98R
$$

KSZ007>012-019>026-033>040-048>060-102>105-231700-
NORTHEAST KANSAS

CITY           SKY/WX    TMP DP  RH WIND       PRES   REMARKS
CONCORDIA      SUNNY     85  67  54 N7        29.99S
EMPORIA        SUNNY     84  68  58 NW10      29.95F
LAWRENCE       SUNNY     82  73  74 W6        29.94R
MANHATTAN      SUNNY     85  69  58 VRB5      29.96S
MARYSVILLE     SUNNY     86  68  54 N6        29.98S
OLATHE IND     SUNNY     81  71  71 NW10      29.95R
OLATHE EXE     MOSUNNY   81  71  71 N7        29.95R
SALINA         SUNNY     86  68  54 NW12      29.99R
TOPEKA BILLARD SUNNY     84  75  74 NW7       29.94S
TOPEKA FORBES  SUNNY     84  72  67 NW8       29.94S
$$




USA.gov is the U.S. government's official web portal to all federal, state and local government web resources and services.